Tracking 30105 objects as of 24-Jan-2025
HD Live streaming from Space Station
objects crossing your sky now

STARLINK-3902

Track STARLINK-3902 now!
10-day predictions
STARLINK-3902 is classified as:


NORAD ID: 52487
Int'l Code: 2022-049AN
Perigee: 545.8 km
Apogee: 547.9 km
Inclination: 53.2 °
Period: 95.4 minutes
Semi major axis: 6917 km
RCS: Unknown
Launch date: May 6, 2022
Source: United States (US)
Launch site: AIR FORCE EASTERN TEST RANGE (AFETR)
Your satellite tracking list
Your tracking list is empty




NASA's NSSDC Master Catalog

Two Line Element Set (TLE):
1 52487U 22049AN  25024.48997766  .00000607  00000-0  56231-4 0  9996
2 52487  53.2182  86.1931 0001551  80.0639 280.0528 15.08845576151859
Source of the keplerian elements: AFSPC